Index of /20260424/WXO-DD/model_gdps/15km/12/018
Name Last modified Size Description
Parent Directory -
20260424T12Z_MSC_GDPS_AbsoluteVorticity_IsbL-0200_LatLon0.15_PT018H.grib2 2026-04-24 15:58 1.5M
20260424T12Z_MSC_GDPS_AbsoluteVorticity_IsbL-0250_LatLon0.15_PT018H.grib2 2026-04-24 15:58 1.3M
20260424T12Z_MSC_GDPS_AbsoluteVorticity_IsbL-0500_LatLon0.15_PT018H.grib2 2026-04-24 15:58 1.5M
20260424T12Z_MSC_GDPS_AbsoluteVorticity_IsbL-0700_LatLon0.15_PT018H.grib2 2026-04-24 15:58 1.3M
20260424T12Z_MSC_GDPS_AbsoluteVorticity_IsbL-0850_LatLon0.15_PT018H.grib2 2026-04-24 15:58 1.6M
20260424T12Z_MSC_GDPS_AirTemp-Max_AGL-2m_LatLon0.15_PT018H.grib2 2026-04-24 15:58 738K
20260424T12Z_MSC_GDPS_AirTemp-Min_AGL-2m_LatLon0.15_PT018H.grib2 2026-04-24 15:58 784K
20260424T12Z_MSC_GDPS_AirTemp_AGL-120m_LatLon0.15_PT018H.grib2 2026-04-24 15:58 902K
20260424T12Z_MSC_GDPS_AirTemp_AGL-2m_LatLon0.15_PT018H.grib2 2026-04-24 15:58 1.0M
20260424T12Z_MSC_GDPS_AirTemp_AGL-40m_LatLon0.15_PT018H.grib2 2026-04-24 15:58 804K
20260424T12Z_MSC_GDPS_AirTemp_AGL-80m_LatLon0.15_PT018H.grib2 2026-04-24 15:58 793K
20260424T12Z_MSC_GDPS_AirTemp_IsbL-0001_LatLon0.15_PT018H.grib2 2026-04-24 15:58 654K
20260424T12Z_MSC_GDPS_AirTemp_IsbL-0005_LatLon0.15_PT018H.grib2 2026-04-24 15:58 691K
20260424T12Z_MSC_GDPS_AirTemp_IsbL-0010_LatLon0.15_PT018H.grib2 2026-04-24 15:58 761K
20260424T12Z_MSC_GDPS_AirTemp_IsbL-0020_LatLon0.15_PT018H.grib2 2026-04-24 15:58 696K
20260424T12Z_MSC_GDPS_AirTemp_IsbL-0030_LatLon0.15_PT018H.grib2 2026-04-24 15:58 749K
20260424T12Z_MSC_GDPS_AirTemp_IsbL-0050_LatLon0.15_PT018H.grib2 2026-04-24 15:58 811K
20260424T12Z_MSC_GDPS_AirTemp_IsbL-0100_LatLon0.15_PT018H.grib2 2026-04-24 15:58 938K
20260424T12Z_MSC_GDPS_AirTemp_IsbL-0150_LatLon0.15_PT018H.grib2 2026-04-24 15:58 1.0M
20260424T12Z_MSC_GDPS_AirTemp_IsbL-0175_LatLon0.15_PT018H.grib2 2026-04-24 15:58 961K
20260424T12Z_MSC_GDPS_AirTemp_IsbL-0200_LatLon0.15_PT018H.grib2 2026-04-24 15:58 972K
20260424T12Z_MSC_GDPS_AirTemp_IsbL-0225_LatLon0.15_PT018H.grib2 2026-04-24 15:58 973K
20260424T12Z_MSC_GDPS_AirTemp_IsbL-0250_LatLon0.15_PT018H.grib2 2026-04-24 15:58 1.0M
20260424T12Z_MSC_GDPS_AirTemp_IsbL-0275_LatLon0.15_PT018H.grib2 2026-04-24 15:58 1.0M
20260424T12Z_MSC_GDPS_AirTemp_IsbL-0300_LatLon0.15_PT018H.grib2 2026-04-24 15:58 1.0M
20260424T12Z_MSC_GDPS_AirTemp_IsbL-0350_LatLon0.15_PT018H.grib2 2026-04-24 15:58 936K
20260424T12Z_MSC_GDPS_AirTemp_IsbL-0400_LatLon0.15_PT018H.grib2 2026-04-24 15:58 944K
20260424T12Z_MSC_GDPS_AirTemp_IsbL-0450_LatLon0.15_PT018H.grib2 2026-04-24 15:58 964K
20260424T12Z_MSC_GDPS_AirTemp_IsbL-0500_LatLon0.15_PT018H.grib2 2026-04-24 15:58 1.0M
20260424T12Z_MSC_GDPS_AirTemp_IsbL-0550_LatLon0.15_PT018H.grib2 2026-04-24 15:58 799K
20260424T12Z_MSC_GDPS_AirTemp_IsbL-0600_LatLon0.15_PT018H.grib2 2026-04-24 15:58 887K
20260424T12Z_MSC_GDPS_AirTemp_IsbL-0650_LatLon0.15_PT018H.grib2 2026-04-24 15:58 908K
20260424T12Z_MSC_GDPS_AirTemp_IsbL-0700_LatLon0.15_PT018H.grib2 2026-04-24 15:58 940K
20260424T12Z_MSC_GDPS_AirTemp_IsbL-0750_LatLon0.15_PT018H.grib2 2026-04-24 15:58 1.0M
20260424T12Z_MSC_GDPS_AirTemp_IsbL-0800_LatLon0.15_PT018H.grib2 2026-04-24 15:58 1.1M
20260424T12Z_MSC_GDPS_AirTemp_IsbL-0850_LatLon0.15_PT018H.grib2 2026-04-24 15:58 1.1M
20260424T12Z_MSC_GDPS_AirTemp_IsbL-0875_LatLon0.15_PT018H.grib2 2026-04-24 15:58 1.1M
20260424T12Z_MSC_GDPS_AirTemp_IsbL-0900_LatLon0.15_PT018H.grib2 2026-04-24 15:58 1.1M
20260424T12Z_MSC_GDPS_AirTemp_IsbL-0925_LatLon0.15_PT018H.grib2 2026-04-24 15:58 1.1M
20260424T12Z_MSC_GDPS_AirTemp_IsbL-0950_LatLon0.15_PT018H.grib2 2026-04-24 15:58 1.1M
20260424T12Z_MSC_GDPS_AirTemp_IsbL-0970_LatLon0.15_PT018H.grib2 2026-04-24 15:58 1.1M
20260424T12Z_MSC_GDPS_AirTemp_IsbL-0985_LatLon0.15_PT018H.grib2 2026-04-24 15:58 1.1M
20260424T12Z_MSC_GDPS_AirTemp_IsbL-1000_LatLon0.15_PT018H.grib2 2026-04-24 15:58 1.1M
20260424T12Z_MSC_GDPS_AirTemp_IsbL-1015_LatLon0.15_PT018H.grib2 2026-04-24 15:58 1.1M
20260424T12Z_MSC_GDPS_Albedo_Sfc_LatLon0.15_PT018H.grib2 2026-04-24 15:58 248K
20260424T12Z_MSC_GDPS_CAPE_Sfc_LatLon0.15_PT018H.grib2 2026-04-24 15:58 3.8M
20260424T12Z_MSC_GDPS_CIN_Sfc_LatLon0.15_PT018H.grib2 2026-04-24 15:58 3.0M
20260424T12Z_MSC_GDPS_CloudWater_EAtm_LatLon0.15_PT018H.grib2 2026-04-24 15:58 526K
20260424T12Z_MSC_GDPS_ConvectivePrecip-Accum_Sfc_LatLon0.15_PT018H.grib2 2026-04-24 15:58 2.1M
20260424T12Z_MSC_GDPS_DewPointDepression_AGL-2m_LatLon0.15_PT018H.grib2 2026-04-24 15:58 755K
20260424T12Z_MSC_GDPS_DewPointDepression_IsbL-0010_LatLon0.15_PT018H.grib2 2026-04-24 15:58 55K
20260424T12Z_MSC_GDPS_DewPointDepression_IsbL-0020_LatLon0.15_PT018H.grib2 2026-04-24 15:58 76K
20260424T12Z_MSC_GDPS_DewPointDepression_IsbL-0030_LatLon0.15_PT018H.grib2 2026-04-24 15:58 80K
20260424T12Z_MSC_GDPS_DewPointDepression_IsbL-0050_LatLon0.15_PT018H.grib2 2026-04-24 15:58 364K
20260424T12Z_MSC_GDPS_DewPointDepression_IsbL-0100_LatLon0.15_PT018H.grib2 2026-04-24 15:58 401K
20260424T12Z_MSC_GDPS_DewPointDepression_IsbL-0150_LatLon0.15_PT018H.grib2 2026-04-24 15:58 474K
20260424T12Z_MSC_GDPS_DewPointDepression_IsbL-0175_LatLon0.15_PT018H.grib2 2026-04-24 15:58 559K
20260424T12Z_MSC_GDPS_DewPointDepression_IsbL-0200_LatLon0.15_PT018H.grib2 2026-04-24 15:58 648K
20260424T12Z_MSC_GDPS_DewPointDepression_IsbL-0225_LatLon0.15_PT018H.grib2 2026-04-24 15:58 764K
20260424T12Z_MSC_GDPS_DewPointDepression_IsbL-0250_LatLon0.15_PT018H.grib2 2026-04-24 15:58 868K
20260424T12Z_MSC_GDPS_DewPointDepression_IsbL-0275_LatLon0.15_PT018H.grib2 2026-04-24 15:58 895K
20260424T12Z_MSC_GDPS_DewPointDepression_IsbL-0300_LatLon0.15_PT018H.grib2 2026-04-24 15:58 945K
20260424T12Z_MSC_GDPS_DewPointDepression_IsbL-0350_LatLon0.15_PT018H.grib2 2026-04-24 15:58 1.0M
20260424T12Z_MSC_GDPS_DewPointDepression_IsbL-0400_LatLon0.15_PT018H.grib2 2026-04-24 15:58 1.0M
20260424T12Z_MSC_GDPS_DewPointDepression_IsbL-0450_LatLon0.15_PT018H.grib2 2026-04-24 15:58 1.0M
20260424T12Z_MSC_GDPS_DewPointDepression_IsbL-0500_LatLon0.15_PT018H.grib2 2026-04-24 15:58 1.0M
20260424T12Z_MSC_GDPS_DewPointDepression_IsbL-0550_LatLon0.15_PT018H.grib2 2026-04-24 15:58 1.0M
20260424T12Z_MSC_GDPS_DewPointDepression_IsbL-0600_LatLon0.15_PT018H.grib2 2026-04-24 15:58 1.0M
20260424T12Z_MSC_GDPS_DewPointDepression_IsbL-0650_LatLon0.15_PT018H.grib2 2026-04-24 15:58 1.0M
20260424T12Z_MSC_GDPS_DewPointDepression_IsbL-0700_LatLon0.15_PT018H.grib2 2026-04-24 15:58 1.1M
20260424T12Z_MSC_GDPS_DewPointDepression_IsbL-0750_LatLon0.15_PT018H.grib2 2026-04-24 15:58 1.1M
20260424T12Z_MSC_GDPS_DewPointDepression_IsbL-0800_LatLon0.15_PT018H.grib2 2026-04-24 15:58 1.1M
20260424T12Z_MSC_GDPS_DewPointDepression_IsbL-0850_LatLon0.15_PT018H.grib2 2026-04-24 15:58 1.1M
20260424T12Z_MSC_GDPS_DewPointDepression_IsbL-0875_LatLon0.15_PT018H.grib2 2026-04-24 15:58 1.1M
20260424T12Z_MSC_GDPS_DewPointDepression_IsbL-0900_LatLon0.15_PT018H.grib2 2026-04-24 15:58 1.0M
20260424T12Z_MSC_GDPS_DewPointDepression_IsbL-0925_LatLon0.15_PT018H.grib2 2026-04-24 15:58 1.0M
20260424T12Z_MSC_GDPS_DewPointDepression_IsbL-0950_LatLon0.15_PT018H.grib2 2026-04-24 15:58 1.0M
20260424T12Z_MSC_GDPS_DewPointDepression_IsbL-0970_LatLon0.15_PT018H.grib2 2026-04-24 15:58 1.0M
20260424T12Z_MSC_GDPS_DewPointDepression_IsbL-0985_LatLon0.15_PT018H.grib2 2026-04-24 15:58 1.0M
20260424T12Z_MSC_GDPS_DewPointDepression_IsbL-1000_LatLon0.15_PT018H.grib2 2026-04-24 15:58 971K
20260424T12Z_MSC_GDPS_DewPointDepression_IsbL-1015_LatLon0.15_PT018H.grib2 2026-04-24 15:58 909K
20260424T12Z_MSC_GDPS_DewPoint_AGL-2m_LatLon0.15_PT018H.grib2 2026-04-24 15:58 602K
20260424T12Z_MSC_GDPS_DownwardLongwaveRadiationFlux-Accum_Sfc_LatLon0.15_PT018H.grib2 2026-04-24 15:58 863K
20260424T12Z_MSC_GDPS_DownwardShortwaveRadiationFlux-Accum_NTAtm_LatLon0.15_PT018H.grib2 2026-04-24 15:58 363K
20260424T12Z_MSC_GDPS_DownwardShortwaveRadiationFlux-Accum_Sfc_LatLon0.15_PT018H.grib2 2026-04-24 15:58 1.1M
20260424T12Z_MSC_GDPS_FreezingRain-Accum12h_Sfc_LatLon0.15_PT018H.grib2 2026-04-24 15:58 97K
20260424T12Z_MSC_GDPS_FreezingRain-Accum1h_Sfc_LatLon0.15_PT018H.grib2 2026-04-24 15:58 43K
20260424T12Z_MSC_GDPS_FreezingRain-Accum3h_Sfc_LatLon0.15_PT018H.grib2 2026-04-24 15:58 52K
20260424T12Z_MSC_GDPS_FreezingRain-Accum6h_Sfc_LatLon0.15_PT018H.grib2 2026-04-24 15:58 80K
20260424T12Z_MSC_GDPS_FreezingRain-Accum_Sfc_LatLon0.15_PT018H.grib2 2026-04-24 15:58 155K
20260424T12Z_MSC_GDPS_GeopotentialHeight_IsbL-0001_LatLon0.15_PT018H.grib2 2026-04-24 15:58 408K
20260424T12Z_MSC_GDPS_GeopotentialHeight_IsbL-0005_LatLon0.15_PT018H.grib2 2026-04-24 15:58 500K
20260424T12Z_MSC_GDPS_GeopotentialHeight_IsbL-0010_LatLon0.15_PT018H.grib2 2026-04-24 15:58 483K
20260424T12Z_MSC_GDPS_GeopotentialHeight_IsbL-0020_LatLon0.15_PT018H.grib2 2026-04-24 15:58 571K
20260424T12Z_MSC_GDPS_GeopotentialHeight_IsbL-0030_LatLon0.15_PT018H.grib2 2026-04-24 15:58 575K
20260424T12Z_MSC_GDPS_GeopotentialHeight_IsbL-0050_LatLon0.15_PT018H.grib2 2026-04-24 15:58 571K
20260424T12Z_MSC_GDPS_GeopotentialHeight_IsbL-0100_LatLon0.15_PT018H.grib2 2026-04-24 15:58 604K
20260424T12Z_MSC_GDPS_GeopotentialHeight_IsbL-0150_LatLon0.15_PT018H.grib2 2026-04-24 15:58 621K
20260424T12Z_MSC_GDPS_GeopotentialHeight_IsbL-0175_LatLon0.15_PT018H.grib2 2026-04-24 15:58 628K
20260424T12Z_MSC_GDPS_GeopotentialHeight_IsbL-0200_LatLon0.15_PT018H.grib2 2026-04-24 15:58 633K
20260424T12Z_MSC_GDPS_GeopotentialHeight_IsbL-0225_LatLon0.15_PT018H.grib2 2026-04-24 15:58 632K
20260424T12Z_MSC_GDPS_GeopotentialHeight_IsbL-0250_LatLon0.15_PT018H.grib2 2026-04-24 15:58 639K
20260424T12Z_MSC_GDPS_GeopotentialHeight_IsbL-0275_LatLon0.15_PT018H.grib2 2026-04-24 15:58 638K
20260424T12Z_MSC_GDPS_GeopotentialHeight_IsbL-0300_LatLon0.15_PT018H.grib2 2026-04-24 15:58 630K
20260424T12Z_MSC_GDPS_GeopotentialHeight_IsbL-0350_LatLon0.15_PT018H.grib2 2026-04-24 15:58 626K
20260424T12Z_MSC_GDPS_GeopotentialHeight_IsbL-0400_LatLon0.15_PT018H.grib2 2026-04-24 15:58 619K
20260424T12Z_MSC_GDPS_GeopotentialHeight_IsbL-0450_LatLon0.15_PT018H.grib2 2026-04-24 15:58 540K
20260424T12Z_MSC_GDPS_GeopotentialHeight_IsbL-0500_LatLon0.15_PT018H.grib2 2026-04-24 15:58 526K
20260424T12Z_MSC_GDPS_GeopotentialHeight_IsbL-0550_LatLon0.15_PT018H.grib2 2026-04-24 15:58 519K
20260424T12Z_MSC_GDPS_GeopotentialHeight_IsbL-0600_LatLon0.15_PT018H.grib2 2026-04-24 15:58 680K
20260424T12Z_MSC_GDPS_GeopotentialHeight_IsbL-0650_LatLon0.15_PT018H.grib2 2026-04-24 15:58 677K
20260424T12Z_MSC_GDPS_GeopotentialHeight_IsbL-0700_LatLon0.15_PT018H.grib2 2026-04-24 15:58 671K
20260424T12Z_MSC_GDPS_GeopotentialHeight_IsbL-0750_LatLon0.15_PT018H.grib2 2026-04-24 15:58 681K
20260424T12Z_MSC_GDPS_GeopotentialHeight_IsbL-0800_LatLon0.15_PT018H.grib2 2026-04-24 15:58 688K
20260424T12Z_MSC_GDPS_GeopotentialHeight_IsbL-0850_LatLon0.15_PT018H.grib2 2026-04-24 15:58 698K
20260424T12Z_MSC_GDPS_GeopotentialHeight_IsbL-0875_LatLon0.15_PT018H.grib2 2026-04-24 15:58 703K
20260424T12Z_MSC_GDPS_GeopotentialHeight_IsbL-0900_LatLon0.15_PT018H.grib2 2026-04-24 15:58 714K
20260424T12Z_MSC_GDPS_GeopotentialHeight_IsbL-0925_LatLon0.15_PT018H.grib2 2026-04-24 15:58 722K
20260424T12Z_MSC_GDPS_GeopotentialHeight_IsbL-0950_LatLon0.15_PT018H.grib2 2026-04-24 15:58 729K
20260424T12Z_MSC_GDPS_GeopotentialHeight_IsbL-0970_LatLon0.15_PT018H.grib2 2026-04-24 15:58 739K
20260424T12Z_MSC_GDPS_GeopotentialHeight_IsbL-0985_LatLon0.15_PT018H.grib2 2026-04-24 15:58 756K
20260424T12Z_MSC_GDPS_GeopotentialHeight_IsbL-1000_LatLon0.15_PT018H.grib2 2026-04-24 15:58 779K
20260424T12Z_MSC_GDPS_GeopotentialHeight_IsbL-1015_LatLon0.15_PT018H.grib2 2026-04-24 15:58 797K
20260424T12Z_MSC_GDPS_Humidex_Sfc_LatLon0.15_PT018H.grib2 2026-04-24 15:58 5.3M
20260424T12Z_MSC_GDPS_IcePellets-Accum12h_Sfc_LatLon0.15_PT018H.grib2 2026-04-24 15:58 40K
20260424T12Z_MSC_GDPS_IcePellets-Accum1h_Sfc_LatLon0.15_PT018H.grib2 2026-04-24 15:58 24K
20260424T12Z_MSC_GDPS_IcePellets-Accum3h_Sfc_LatLon0.15_PT018H.grib2 2026-04-24 15:58 29K
20260424T12Z_MSC_GDPS_IcePellets-Accum6h_Sfc_LatLon0.15_PT018H.grib2 2026-04-24 15:58 38K
20260424T12Z_MSC_GDPS_IcePellets-Accum_Sfc_LatLon0.15_PT018H.grib2 2026-04-24 15:58 51K
20260424T12Z_MSC_GDPS_KIndex_Sfc_LatLon0.15_PT018H.grib2 2026-04-24 15:58 6.3M
20260424T12Z_MSC_GDPS_LatentHeatNetFlux_Sfc_LatLon0.15_PT018H.grib2 2026-04-24 15:58 698K
20260424T12Z_MSC_GDPS_LiftedIndex-MU-VT_IsbL-0500_LatLon0.15_PT018H.grib2 2026-04-24 15:58 5.4M
20260424T12Z_MSC_GDPS_NetLongwaveRadiationFlux-Accum_Sfc_LatLon0.15_PT018H.grib2 2026-04-24 15:58 1.1M
20260424T12Z_MSC_GDPS_NetShortwaveRadiationFlux-Accum_Sfc_LatLon0.15_PT018H.grib2 2026-04-24 15:58 1.0M
20260424T12Z_MSC_GDPS_O3MixingRatio_LatLon0.15_PT018H.grib2 2026-04-24 16:48 2.4M
20260424T12Z_MSC_GDPS_O3_EAtm_LatLon0.15_PT018H.grib2 2026-04-24 16:48 2.5M
20260424T12Z_MSC_GDPS_PlanetaryBoundaryLayerHeight_Sfc_LatLon0.15_PT018H.grib2 2026-04-24 15:58 2.5M
20260424T12Z_MSC_GDPS_Precip-Accum12h_Sfc_LatLon0.15_PT018H.grib2 2026-04-24 15:58 4.0M
20260424T12Z_MSC_GDPS_Precip-Accum1h_Sfc_LatLon0.15_PT018H.grib2 2026-04-24 15:58 3.2M
20260424T12Z_MSC_GDPS_Precip-Accum3h_Sfc_LatLon0.15_PT018H.grib2 2026-04-24 15:58 3.5M
20260424T12Z_MSC_GDPS_Precip-Accum6h_Sfc_LatLon0.15_PT018H.grib2 2026-04-24 15:58 3.5M
20260424T12Z_MSC_GDPS_Precip-Accum_Sfc_LatLon0.15_PT018H.grib2 2026-04-24 15:58 4.1M
20260424T12Z_MSC_GDPS_PrecipRate_Sfc_LatLon0.15_PT018H.grib2 2026-04-24 15:58 2.9M
20260424T12Z_MSC_GDPS_PrecipType-Instant_Sfc_LatLon0.15_PT018H.grib2 2026-04-24 15:58 1.5M
20260424T12Z_MSC_GDPS_Pressure_MSL_LatLon0.15_PT018H.grib2 2026-04-24 15:58 814K
20260424T12Z_MSC_GDPS_Pressure_PVU-1.5_LatLon0.15_PT018H.grib2 2026-04-24 15:58 5.8M
20260424T12Z_MSC_GDPS_Pressure_PVU-1_LatLon0.15_PT018H.grib2 2026-04-24 15:58 6.0M
20260424T12Z_MSC_GDPS_Pressure_PVU-2_LatLon0.15_PT018H.grib2 2026-04-24 15:58 5.6M
20260424T12Z_MSC_GDPS_Pressure_Sfc_LatLon0.15_PT018H.grib2 2026-04-24 15:58 1.1M
20260424T12Z_MSC_GDPS_RadiativeTemp_Sfc_LatLon0.15_PT018H.grib2 2026-04-24 15:58 662K
20260424T12Z_MSC_GDPS_Rain-Accum12h_Sfc_LatLon0.15_PT018H.grib2 2026-04-24 15:58 2.6M
20260424T12Z_MSC_GDPS_Rain-Accum1h_Sfc_LatLon0.15_PT018H.grib2 2026-04-24 15:58 1.5M
20260424T12Z_MSC_GDPS_Rain-Accum3h_Sfc_LatLon0.15_PT018H.grib2 2026-04-24 15:58 1.6M
20260424T12Z_MSC_GDPS_Rain-Accum6h_Sfc_LatLon0.15_PT018H.grib2 2026-04-24 15:58 2.2M
20260424T12Z_MSC_GDPS_Rain-Accum_Sfc_LatLon0.15_PT018H.grib2 2026-04-24 15:58 3.0M
20260424T12Z_MSC_GDPS_RelativeHumidity_AGL-2m_LatLon0.15_PT018H.grib2 2026-04-24 15:58 1.1M
20260424T12Z_MSC_GDPS_RelativeHumidity_IsbL-0010_LatLon0.15_PT018H.grib2 2026-04-24 15:58 279K
20260424T12Z_MSC_GDPS_RelativeHumidity_IsbL-0020_LatLon0.15_PT018H.grib2 2026-04-24 15:58 295K
20260424T12Z_MSC_GDPS_RelativeHumidity_IsbL-0030_LatLon0.15_PT018H.grib2 2026-04-24 15:58 433K
20260424T12Z_MSC_GDPS_RelativeHumidity_IsbL-0050_LatLon0.15_PT018H.grib2 2026-04-24 15:58 335K
20260424T12Z_MSC_GDPS_RelativeHumidity_IsbL-0100_LatLon0.15_PT018H.grib2 2026-04-24 15:58 501K
20260424T12Z_MSC_GDPS_RelativeHumidity_IsbL-0150_LatLon0.15_PT018H.grib2 2026-04-24 15:58 649K
20260424T12Z_MSC_GDPS_RelativeHumidity_IsbL-0175_LatLon0.15_PT018H.grib2 2026-04-24 15:58 583K
20260424T12Z_MSC_GDPS_RelativeHumidity_IsbL-0200_LatLon0.15_PT018H.grib2 2026-04-24 15:58 688K
20260424T12Z_MSC_GDPS_RelativeHumidity_IsbL-0225_LatLon0.15_PT018H.grib2 2026-04-24 15:58 777K
20260424T12Z_MSC_GDPS_RelativeHumidity_IsbL-0250_LatLon0.15_PT018H.grib2 2026-04-24 15:58 864K
20260424T12Z_MSC_GDPS_RelativeHumidity_IsbL-0275_LatLon0.15_PT018H.grib2 2026-04-24 15:58 887K
20260424T12Z_MSC_GDPS_RelativeHumidity_IsbL-0300_LatLon0.15_PT018H.grib2 2026-04-24 15:58 932K
20260424T12Z_MSC_GDPS_RelativeHumidity_IsbL-0350_LatLon0.15_PT018H.grib2 2026-04-24 15:58 958K
20260424T12Z_MSC_GDPS_RelativeHumidity_IsbL-0400_LatLon0.15_PT018H.grib2 2026-04-24 15:58 1.0M
20260424T12Z_MSC_GDPS_RelativeHumidity_IsbL-0450_LatLon0.15_PT018H.grib2 2026-04-24 15:58 1.0M
20260424T12Z_MSC_GDPS_RelativeHumidity_IsbL-0500_LatLon0.15_PT018H.grib2 2026-04-24 15:58 1.0M
20260424T12Z_MSC_GDPS_RelativeHumidity_IsbL-0550_LatLon0.15_PT018H.grib2 2026-04-24 15:58 1.1M
20260424T12Z_MSC_GDPS_RelativeHumidity_IsbL-0600_LatLon0.15_PT018H.grib2 2026-04-24 15:58 1.1M
20260424T12Z_MSC_GDPS_RelativeHumidity_IsbL-0650_LatLon0.15_PT018H.grib2 2026-04-24 15:58 1.1M
20260424T12Z_MSC_GDPS_RelativeHumidity_IsbL-0700_LatLon0.15_PT018H.grib2 2026-04-24 15:58 1.1M
20260424T12Z_MSC_GDPS_RelativeHumidity_IsbL-0750_LatLon0.15_PT018H.grib2 2026-04-24 15:58 1.2M
20260424T12Z_MSC_GDPS_RelativeHumidity_IsbL-0800_LatLon0.15_PT018H.grib2 2026-04-24 15:58 1.3M
20260424T12Z_MSC_GDPS_RelativeHumidity_IsbL-0850_LatLon0.15_PT018H.grib2 2026-04-24 15:58 1.3M
20260424T12Z_MSC_GDPS_RelativeHumidity_IsbL-0875_LatLon0.15_PT018H.grib2 2026-04-24 15:58 1.2M
20260424T12Z_MSC_GDPS_RelativeHumidity_IsbL-0900_LatLon0.15_PT018H.grib2 2026-04-24 15:58 1.2M
20260424T12Z_MSC_GDPS_RelativeHumidity_IsbL-0925_LatLon0.15_PT018H.grib2 2026-04-24 15:58 1.2M
20260424T12Z_MSC_GDPS_RelativeHumidity_IsbL-0950_LatLon0.15_PT018H.grib2 2026-04-24 15:58 1.2M
20260424T12Z_MSC_GDPS_RelativeHumidity_IsbL-0970_LatLon0.15_PT018H.grib2 2026-04-24 15:58 1.2M
20260424T12Z_MSC_GDPS_RelativeHumidity_IsbL-0985_LatLon0.15_PT018H.grib2 2026-04-24 15:58 1.1M
20260424T12Z_MSC_GDPS_RelativeHumidity_IsbL-1000_LatLon0.15_PT018H.grib2 2026-04-24 15:58 1.2M
20260424T12Z_MSC_GDPS_RelativeHumidity_IsbL-1015_LatLon0.15_PT018H.grib2 2026-04-24 15:58 1.0M
20260424T12Z_MSC_GDPS_RelativeVorticity_IsbL-0200_LatLon0.15_PT018H.grib2 2026-04-24 15:58 1.5M
20260424T12Z_MSC_GDPS_RelativeVorticity_IsbL-0250_LatLon0.15_PT018H.grib2 2026-04-24 15:58 1.6M
20260424T12Z_MSC_GDPS_RelativeVorticity_IsbL-0500_LatLon0.15_PT018H.grib2 2026-04-24 15:58 1.5M
20260424T12Z_MSC_GDPS_RelativeVorticity_IsbL-0700_LatLon0.15_PT018H.grib2 2026-04-24 15:58 1.3M
20260424T12Z_MSC_GDPS_RelativeVorticity_IsbL-0850_LatLon0.15_PT018H.grib2 2026-04-24 15:58 1.6M
20260424T12Z_MSC_GDPS_Runoff-Accum_Sfc_LatLon0.15_PT018H.grib2 2026-04-24 15:58 88K
20260424T12Z_MSC_GDPS_SensibleHeatNetFlux_Sfc_LatLon0.15_PT018H.grib2 2026-04-24 15:58 647K
20260424T12Z_MSC_GDPS_ShowalterIndex_IsbL-0500_LatLon0.15_PT018H.grib2 2026-04-24 15:58 6.2M
20260424T12Z_MSC_GDPS_Snow-Accum12h_Sfc_LatLon0.15_PT018H.grib2 2026-04-24 15:58 1.4M
20260424T12Z_MSC_GDPS_Snow-Accum1h_Sfc_LatLon0.15_PT018H.grib2 2026-04-24 15:58 1.1M
20260424T12Z_MSC_GDPS_Snow-Accum3h_Sfc_LatLon0.15_PT018H.grib2 2026-04-24 15:58 1.1M
20260424T12Z_MSC_GDPS_Snow-Accum6h_Sfc_LatLon0.15_PT018H.grib2 2026-04-24 15:58 1.4M
20260424T12Z_MSC_GDPS_Snow-Accum_Sfc_LatLon0.15_PT018H.grib2 2026-04-24 15:58 1.7M
20260424T12Z_MSC_GDPS_SnowDensity_Sfc_LatLon0.15_PT018H.grib2 2026-04-24 15:58 261K
20260424T12Z_MSC_GDPS_SnowDepth_Sfc_LatLon0.15_PT018H.grib2 2026-04-24 15:58 1.8M
20260424T12Z_MSC_GDPS_SoilTemp_DBS-0to10cm_LatLon0.15_PT018H.grib2 2026-04-24 15:58 495K
20260424T12Z_MSC_GDPS_SoilTemp_Sfc_LatLon0.15_PT018H.grib2 2026-04-24 15:58 577K
20260424T12Z_MSC_GDPS_SoilVolumetricIceContent_Sfc_LatLon0.15_PT018H.grib2 2026-04-24 15:58 215K
20260424T12Z_MSC_GDPS_SoilVolumetricWaterContent_DBS-0to10cm_LatLon0.15_PT018H.grib2 2026-04-24 15:58 561K
20260424T12Z_MSC_GDPS_SoilVolumetricWaterContent_DBS-0to1cm_LatLon0.15_PT018H.grib2 2026-04-24 15:58 649K
20260424T12Z_MSC_GDPS_SpecificHumidity_AGL-120m_LatLon0.15_PT018H.grib2 2026-04-24 15:58 1.1M
20260424T12Z_MSC_GDPS_SpecificHumidity_AGL-2m_LatLon0.15_PT018H.grib2 2026-04-24 15:58 1.2M
20260424T12Z_MSC_GDPS_SpecificHumidity_AGL-40m_LatLon0.15_PT018H.grib2 2026-04-24 15:58 1.1M
20260424T12Z_MSC_GDPS_SpecificHumidity_AGL-80m_LatLon0.15_PT018H.grib2 2026-04-24 15:58 1.1M
20260424T12Z_MSC_GDPS_SpecificHumidity_IsbL-0001_LatLon0.15_PT018H.grib2 2026-04-24 15:58 1.3M
20260424T12Z_MSC_GDPS_SpecificHumidity_IsbL-0005_LatLon0.15_PT018H.grib2 2026-04-24 15:58 1.2M
20260424T12Z_MSC_GDPS_SpecificHumidity_IsbL-0010_LatLon0.15_PT018H.grib2 2026-04-24 15:58 1.4M
20260424T12Z_MSC_GDPS_SpecificHumidity_IsbL-0020_LatLon0.15_PT018H.grib2 2026-04-24 15:58 1.4M
20260424T12Z_MSC_GDPS_SpecificHumidity_IsbL-0030_LatLon0.15_PT018H.grib2 2026-04-24 15:58 1.4M
20260424T12Z_MSC_GDPS_SpecificHumidity_IsbL-0050_LatLon0.15_PT018H.grib2 2026-04-24 15:58 1.4M
20260424T12Z_MSC_GDPS_SpecificHumidity_IsbL-0100_LatLon0.15_PT018H.grib2 2026-04-24 15:58 1.1M
20260424T12Z_MSC_GDPS_SpecificHumidity_IsbL-0150_LatLon0.15_PT018H.grib2 2026-04-24 15:58 1.2M
20260424T12Z_MSC_GDPS_SpecificHumidity_IsbL-0175_LatLon0.15_PT018H.grib2 2026-04-24 15:58 1.3M
20260424T12Z_MSC_GDPS_SpecificHumidity_IsbL-0200_LatLon0.15_PT018H.grib2 2026-04-24 15:58 1.3M
20260424T12Z_MSC_GDPS_SpecificHumidity_IsbL-0225_LatLon0.15_PT018H.grib2 2026-04-24 15:58 1.3M
20260424T12Z_MSC_GDPS_SpecificHumidity_IsbL-0250_LatLon0.15_PT018H.grib2 2026-04-24 15:58 1.4M
20260424T12Z_MSC_GDPS_SpecificHumidity_IsbL-0275_LatLon0.15_PT018H.grib2 2026-04-24 15:58 1.3M
20260424T12Z_MSC_GDPS_SpecificHumidity_IsbL-0300_LatLon0.15_PT018H.grib2 2026-04-24 15:58 1.2M
20260424T12Z_MSC_GDPS_SpecificHumidity_IsbL-0350_LatLon0.15_PT018H.grib2 2026-04-24 15:58 1.2M
20260424T12Z_MSC_GDPS_SpecificHumidity_IsbL-0400_LatLon0.15_PT018H.grib2 2026-04-24 15:58 1.5M
20260424T12Z_MSC_GDPS_SpecificHumidity_IsbL-0450_LatLon0.15_PT018H.grib2 2026-04-24 15:58 1.6M
20260424T12Z_MSC_GDPS_SpecificHumidity_IsbL-0500_LatLon0.15_PT018H.grib2 2026-04-24 15:58 1.4M
20260424T12Z_MSC_GDPS_SpecificHumidity_IsbL-0550_LatLon0.15_PT018H.grib2 2026-04-24 15:58 1.6M
20260424T12Z_MSC_GDPS_SpecificHumidity_IsbL-0600_LatLon0.15_PT018H.grib2 2026-04-24 15:58 1.7M
20260424T12Z_MSC_GDPS_SpecificHumidity_IsbL-0650_LatLon0.15_PT018H.grib2 2026-04-24 15:58 1.5M
20260424T12Z_MSC_GDPS_SpecificHumidity_IsbL-0700_LatLon0.15_PT018H.grib2 2026-04-24 15:58 1.6M
20260424T12Z_MSC_GDPS_SpecificHumidity_IsbL-0750_LatLon0.15_PT018H.grib2 2026-04-24 15:58 1.7M
20260424T12Z_MSC_GDPS_SpecificHumidity_IsbL-0800_LatLon0.15_PT018H.grib2 2026-04-24 15:58 1.8M
20260424T12Z_MSC_GDPS_SpecificHumidity_IsbL-0850_LatLon0.15_PT018H.grib2 2026-04-24 15:58 1.9M
20260424T12Z_MSC_GDPS_SpecificHumidity_IsbL-0875_LatLon0.15_PT018H.grib2 2026-04-24 15:58 1.9M
20260424T12Z_MSC_GDPS_SpecificHumidity_IsbL-0900_LatLon0.15_PT018H.grib2 2026-04-24 15:58 1.9M
20260424T12Z_MSC_GDPS_SpecificHumidity_IsbL-0925_LatLon0.15_PT018H.grib2 2026-04-24 15:58 1.6M
20260424T12Z_MSC_GDPS_SpecificHumidity_IsbL-0950_LatLon0.15_PT018H.grib2 2026-04-24 15:58 1.5M
20260424T12Z_MSC_GDPS_SpecificHumidity_IsbL-0970_LatLon0.15_PT018H.grib2 2026-04-24 15:58 1.5M
20260424T12Z_MSC_GDPS_SpecificHumidity_IsbL-0985_LatLon0.15_PT018H.grib2 2026-04-24 15:58 1.5M
20260424T12Z_MSC_GDPS_SpecificHumidity_IsbL-1000_LatLon0.15_PT018H.grib2 2026-04-24 15:58 1.5M
20260424T12Z_MSC_GDPS_SpecificHumidity_IsbL-1015_LatLon0.15_PT018H.grib2 2026-04-24 15:58 1.4M
20260424T12Z_MSC_GDPS_SpecificHumidity_Sfc_LatLon0.15_PT018H.grib2 2026-04-24 15:58 662K
20260424T12Z_MSC_GDPS_Thickness_IsbL-0850to0700_LatLon0.15_PT018H.grib2 2026-04-24 15:58 462K
20260424T12Z_MSC_GDPS_Thickness_IsbL-1000to0500_LatLon0.15_PT018H.grib2 2026-04-24 15:58 367K
20260424T12Z_MSC_GDPS_Thickness_IsbL-1000to0850_LatLon0.15_PT018H.grib2 2026-04-24 15:58 485K
20260424T12Z_MSC_GDPS_TotalCloudCover_Sfc_LatLon0.15_PT018H.grib2 2026-04-24 15:58 826K
20260424T12Z_MSC_GDPS_TotalTotalsIndex_Sfc_LatLon0.15_PT018H.grib2 2026-04-24 15:58 6.2M
20260424T12Z_MSC_GDPS_UVIndex-ClearSky_Sfc_LatLon0.15_PT018H.grib2 2026-04-24 16:48 1.1M
20260424T12Z_MSC_GDPS_UVIndex_Sfc_LatLon0.15_PT018H.grib2 2026-04-24 16:48 1.4M
20260424T12Z_MSC_GDPS_UpwardLongwaveRadiationFlux_NTAtm_LatLon0.15_PT018H.grib2 2026-04-24 15:58 831K
20260424T12Z_MSC_GDPS_VerticalVelocity_IsbL-0200_LatLon0.15_PT018H.grib2 2026-04-24 15:58 926K
20260424T12Z_MSC_GDPS_VerticalVelocity_IsbL-0250_LatLon0.15_PT018H.grib2 2026-04-24 15:58 1.0M
20260424T12Z_MSC_GDPS_VerticalVelocity_IsbL-0500_LatLon0.15_PT018H.grib2 2026-04-24 15:58 1.0M
20260424T12Z_MSC_GDPS_VerticalVelocity_IsbL-0600_LatLon0.15_PT018H.grib2 2026-04-24 15:58 1.0M
20260424T12Z_MSC_GDPS_VerticalVelocity_IsbL-0700_LatLon0.15_PT018H.grib2 2026-04-24 15:58 1.1M
20260424T12Z_MSC_GDPS_VerticalVelocity_IsbL-0850_LatLon0.15_PT018H.grib2 2026-04-24 15:58 1.6M
20260424T12Z_MSC_GDPS_WindChill_Sfc_LatLon0.15_PT018H.grib2 2026-04-24 15:58 5.3M
20260424T12Z_MSC_GDPS_WindDir_AGL-10m_LatLon0.15_PT018H.grib2 2026-04-24 15:58 1.3M
20260424T12Z_MSC_GDPS_WindDir_AGL-120m_LatLon0.15_PT018H.grib2 2026-04-24 15:58 1.3M
20260424T12Z_MSC_GDPS_WindDir_AGL-40m_LatLon0.15_PT018H.grib2 2026-04-24 15:58 1.4M
20260424T12Z_MSC_GDPS_WindDir_AGL-80m_LatLon0.15_PT018H.grib2 2026-04-24 15:58 1.4M
20260424T12Z_MSC_GDPS_WindDir_IsbL-0001_LatLon0.15_PT018H.grib2 2026-04-24 15:58 652K
20260424T12Z_MSC_GDPS_WindDir_IsbL-0005_LatLon0.15_PT018H.grib2 2026-04-24 15:58 805K
20260424T12Z_MSC_GDPS_WindDir_IsbL-0010_LatLon0.15_PT018H.grib2 2026-04-24 15:58 862K
20260424T12Z_MSC_GDPS_WindDir_IsbL-0020_LatLon0.15_PT018H.grib2 2026-04-24 15:58 940K
20260424T12Z_MSC_GDPS_WindDir_IsbL-0030_LatLon0.15_PT018H.grib2 2026-04-24 15:58 924K
20260424T12Z_MSC_GDPS_WindDir_IsbL-0050_LatLon0.15_PT018H.grib2 2026-04-24 15:58 970K
20260424T12Z_MSC_GDPS_WindDir_IsbL-0100_LatLon0.15_PT018H.grib2 2026-04-24 15:58 1.0M
20260424T12Z_MSC_GDPS_WindDir_IsbL-0150_LatLon0.15_PT018H.grib2 2026-04-24 15:58 1.0M
20260424T12Z_MSC_GDPS_WindDir_IsbL-0175_LatLon0.15_PT018H.grib2 2026-04-24 15:58 1.1M
20260424T12Z_MSC_GDPS_WindDir_IsbL-0200_LatLon0.15_PT018H.grib2 2026-04-24 15:58 1.1M
20260424T12Z_MSC_GDPS_WindDir_IsbL-0225_LatLon0.15_PT018H.grib2 2026-04-24 15:58 1.1M
20260424T12Z_MSC_GDPS_WindDir_IsbL-0250_LatLon0.15_PT018H.grib2 2026-04-24 15:58 1.1M
20260424T12Z_MSC_GDPS_WindDir_IsbL-0275_LatLon0.15_PT018H.grib2 2026-04-24 15:58 1.2M
20260424T12Z_MSC_GDPS_WindDir_IsbL-0300_LatLon0.15_PT018H.grib2 2026-04-24 15:58 1.2M
20260424T12Z_MSC_GDPS_WindDir_IsbL-0350_LatLon0.15_PT018H.grib2 2026-04-24 15:58 1.2M
20260424T12Z_MSC_GDPS_WindDir_IsbL-0400_LatLon0.15_PT018H.grib2 2026-04-24 15:58 1.3M
20260424T12Z_MSC_GDPS_WindDir_IsbL-0450_LatLon0.15_PT018H.grib2 2026-04-24 15:58 1.3M
20260424T12Z_MSC_GDPS_WindDir_IsbL-0500_LatLon0.15_PT018H.grib2 2026-04-24 15:58 1.4M
20260424T12Z_MSC_GDPS_WindDir_IsbL-0550_LatLon0.15_PT018H.grib2 2026-04-24 15:58 1.4M
20260424T12Z_MSC_GDPS_WindDir_IsbL-0600_LatLon0.15_PT018H.grib2 2026-04-24 15:58 1.5M
20260424T12Z_MSC_GDPS_WindDir_IsbL-0650_LatLon0.15_PT018H.grib2 2026-04-24 15:58 1.5M
20260424T12Z_MSC_GDPS_WindDir_IsbL-0700_LatLon0.15_PT018H.grib2 2026-04-24 15:58 1.6M
20260424T12Z_MSC_GDPS_WindDir_IsbL-0750_LatLon0.15_PT018H.grib2 2026-04-24 15:58 1.7M
20260424T12Z_MSC_GDPS_WindDir_IsbL-0800_LatLon0.15_PT018H.grib2 2026-04-24 15:58 1.8M
20260424T12Z_MSC_GDPS_WindDir_IsbL-0850_LatLon0.15_PT018H.grib2 2026-04-24 15:58 1.9M
20260424T12Z_MSC_GDPS_WindDir_IsbL-0875_LatLon0.15_PT018H.grib2 2026-04-24 15:58 1.9M
20260424T12Z_MSC_GDPS_WindDir_IsbL-0900_LatLon0.15_PT018H.grib2 2026-04-24 15:58 2.0M
20260424T12Z_MSC_GDPS_WindDir_IsbL-0925_LatLon0.15_PT018H.grib2 2026-04-24 15:58 2.0M
20260424T12Z_MSC_GDPS_WindDir_IsbL-0950_LatLon0.15_PT018H.grib2 2026-04-24 15:58 2.0M
20260424T12Z_MSC_GDPS_WindDir_IsbL-0970_LatLon0.15_PT018H.grib2 2026-04-24 15:58 2.0M
20260424T12Z_MSC_GDPS_WindDir_IsbL-0985_LatLon0.15_PT018H.grib2 2026-04-24 15:58 2.0M
20260424T12Z_MSC_GDPS_WindDir_IsbL-1000_LatLon0.15_PT018H.grib2 2026-04-24 15:58 2.1M
20260424T12Z_MSC_GDPS_WindDir_IsbL-1015_LatLon0.15_PT018H.grib2 2026-04-24 15:58 2.0M
20260424T12Z_MSC_GDPS_WindGust-Max_AGL-10m_LatLon0.15_PT018H.grib2 2026-04-24 15:58 2.2M
20260424T12Z_MSC_GDPS_WindGust-Min_AGL-10m_LatLon0.15_PT018H.grib2 2026-04-24 15:58 2.2M
20260424T12Z_MSC_GDPS_WindGust_AGL-10m_LatLon0.15_PT018H.grib2 2026-04-24 15:58 2.2M
20260424T12Z_MSC_GDPS_WindSpeed_AGL-10m_LatLon0.15_PT018H.grib2 2026-04-24 15:58 1.1M
20260424T12Z_MSC_GDPS_WindSpeed_AGL-120m_LatLon0.15_PT018H.grib2 2026-04-24 15:58 1.2M
20260424T12Z_MSC_GDPS_WindSpeed_AGL-40m_LatLon0.15_PT018H.grib2 2026-04-24 15:58 1.2M
20260424T12Z_MSC_GDPS_WindSpeed_AGL-80m_LatLon0.15_PT018H.grib2 2026-04-24 15:58 1.2M
20260424T12Z_MSC_GDPS_WindSpeed_IsbL-0001_LatLon0.15_PT018H.grib2 2026-04-24 15:58 643K
20260424T12Z_MSC_GDPS_WindSpeed_IsbL-0005_LatLon0.15_PT018H.grib2 2026-04-24 15:58 699K
20260424T12Z_MSC_GDPS_WindSpeed_IsbL-0010_LatLon0.15_PT018H.grib2 2026-04-24 15:58 634K
20260424T12Z_MSC_GDPS_WindSpeed_IsbL-0020_LatLon0.15_PT018H.grib2 2026-04-24 15:58 862K
20260424T12Z_MSC_GDPS_WindSpeed_IsbL-0030_LatLon0.15_PT018H.grib2 2026-04-24 15:58 863K
20260424T12Z_MSC_GDPS_WindSpeed_IsbL-0050_LatLon0.15_PT018H.grib2 2026-04-24 15:58 1.0M
20260424T12Z_MSC_GDPS_WindSpeed_IsbL-0100_LatLon0.15_PT018H.grib2 2026-04-24 15:58 1.1M
20260424T12Z_MSC_GDPS_WindSpeed_IsbL-0150_LatLon0.15_PT018H.grib2 2026-04-24 15:58 1.0M
20260424T12Z_MSC_GDPS_WindSpeed_IsbL-0175_LatLon0.15_PT018H.grib2 2026-04-24 15:58 1.0M
20260424T12Z_MSC_GDPS_WindSpeed_IsbL-0200_LatLon0.15_PT018H.grib2 2026-04-24 15:58 1.1M
20260424T12Z_MSC_GDPS_WindSpeed_IsbL-0225_LatLon0.15_PT018H.grib2 2026-04-24 15:58 1.1M
20260424T12Z_MSC_GDPS_WindSpeed_IsbL-0250_LatLon0.15_PT018H.grib2 2026-04-24 15:58 1.1M
20260424T12Z_MSC_GDPS_WindSpeed_IsbL-0275_LatLon0.15_PT018H.grib2 2026-04-24 15:58 1.1M
20260424T12Z_MSC_GDPS_WindSpeed_IsbL-0300_LatLon0.15_PT018H.grib2 2026-04-24 15:58 1.1M
20260424T12Z_MSC_GDPS_WindSpeed_IsbL-0350_LatLon0.15_PT018H.grib2 2026-04-24 15:58 1.1M
20260424T12Z_MSC_GDPS_WindSpeed_IsbL-0400_LatLon0.15_PT018H.grib2 2026-04-24 15:58 1.1M
20260424T12Z_MSC_GDPS_WindSpeed_IsbL-0450_LatLon0.15_PT018H.grib2 2026-04-24 15:58 1.1M
20260424T12Z_MSC_GDPS_WindSpeed_IsbL-0500_LatLon0.15_PT018H.grib2 2026-04-24 15:58 1.1M
20260424T12Z_MSC_GDPS_WindSpeed_IsbL-0550_LatLon0.15_PT018H.grib2 2026-04-24 15:58 1.1M
20260424T12Z_MSC_GDPS_WindSpeed_IsbL-0600_LatLon0.15_PT018H.grib2 2026-04-24 15:58 1.1M
20260424T12Z_MSC_GDPS_WindSpeed_IsbL-0650_LatLon0.15_PT018H.grib2 2026-04-24 15:58 1.4M
20260424T12Z_MSC_GDPS_WindSpeed_IsbL-0700_LatLon0.15_PT018H.grib2 2026-04-24 15:58 1.5M
20260424T12Z_MSC_GDPS_WindSpeed_IsbL-0750_LatLon0.15_PT018H.grib2 2026-04-24 15:58 1.5M
20260424T12Z_MSC_GDPS_WindSpeed_IsbL-0800_LatLon0.15_PT018H.grib2 2026-04-24 15:58 1.7M
20260424T12Z_MSC_GDPS_WindSpeed_IsbL-0850_LatLon0.15_PT018H.grib2 2026-04-24 15:58 1.7M
20260424T12Z_MSC_GDPS_WindSpeed_IsbL-0875_LatLon0.15_PT018H.grib2 2026-04-24 15:58 1.8M
20260424T12Z_MSC_GDPS_WindSpeed_IsbL-0900_LatLon0.15_PT018H.grib2 2026-04-24 15:58 1.8M
20260424T12Z_MSC_GDPS_WindSpeed_IsbL-0925_LatLon0.15_PT018H.grib2 2026-04-24 15:58 1.9M
20260424T12Z_MSC_GDPS_WindSpeed_IsbL-0950_LatLon0.15_PT018H.grib2 2026-04-24 15:58 1.9M
20260424T12Z_MSC_GDPS_WindSpeed_IsbL-0970_LatLon0.15_PT018H.grib2 2026-04-24 15:58 1.9M
20260424T12Z_MSC_GDPS_WindSpeed_IsbL-0985_LatLon0.15_PT018H.grib2 2026-04-24 15:58 1.9M
20260424T12Z_MSC_GDPS_WindSpeed_IsbL-1000_LatLon0.15_PT018H.grib2 2026-04-24 15:58 1.9M
20260424T12Z_MSC_GDPS_WindSpeed_IsbL-1015_LatLon0.15_PT018H.grib2 2026-04-24 15:58 1.8M
20260424T12Z_MSC_GDPS_WindU_AGL-10m_LatLon0.15_PT018H.grib2 2026-04-24 15:58 1.3M
20260424T12Z_MSC_GDPS_WindU_AGL-120m_LatLon0.15_PT018H.grib2 2026-04-24 15:58 1.0M
20260424T12Z_MSC_GDPS_WindU_AGL-40m_LatLon0.15_PT018H.grib2 2026-04-24 15:58 962K
20260424T12Z_MSC_GDPS_WindU_AGL-80m_LatLon0.15_PT018H.grib2 2026-04-24 15:58 967K
20260424T12Z_MSC_GDPS_WindU_IsbL-0001_LatLon0.15_PT018H.grib2 2026-04-24 15:58 505K
20260424T12Z_MSC_GDPS_WindU_IsbL-0005_LatLon0.15_PT018H.grib2 2026-04-24 15:58 698K
20260424T12Z_MSC_GDPS_WindU_IsbL-0010_LatLon0.15_PT018H.grib2 2026-04-24 15:58 708K
20260424T12Z_MSC_GDPS_WindU_IsbL-0020_LatLon0.15_PT018H.grib2 2026-04-24 15:58 739K
20260424T12Z_MSC_GDPS_WindU_IsbL-0030_LatLon0.15_PT018H.grib2 2026-04-24 15:58 739K
20260424T12Z_MSC_GDPS_WindU_IsbL-0050_LatLon0.15_PT018H.grib2 2026-04-24 15:58 704K
20260424T12Z_MSC_GDPS_WindU_IsbL-0100_LatLon0.15_PT018H.grib2 2026-04-24 15:58 909K
20260424T12Z_MSC_GDPS_WindU_IsbL-0150_LatLon0.15_PT018H.grib2 2026-04-24 15:58 1.0M
20260424T12Z_MSC_GDPS_WindU_IsbL-0175_LatLon0.15_PT018H.grib2 2026-04-24 15:58 1.0M
20260424T12Z_MSC_GDPS_WindU_IsbL-0200_LatLon0.15_PT018H.grib2 2026-04-24 15:58 1.1M
20260424T12Z_MSC_GDPS_WindU_IsbL-0225_LatLon0.15_PT018H.grib2 2026-04-24 15:58 856K
20260424T12Z_MSC_GDPS_WindU_IsbL-0250_LatLon0.15_PT018H.grib2 2026-04-24 15:58 859K
20260424T12Z_MSC_GDPS_WindU_IsbL-0275_LatLon0.15_PT018H.grib2 2026-04-24 15:58 886K
20260424T12Z_MSC_GDPS_WindU_IsbL-0300_LatLon0.15_PT018H.grib2 2026-04-24 15:58 880K
20260424T12Z_MSC_GDPS_WindU_IsbL-0350_LatLon0.15_PT018H.grib2 2026-04-24 15:58 897K
20260424T12Z_MSC_GDPS_WindU_IsbL-0400_LatLon0.15_PT018H.grib2 2026-04-24 15:58 896K
20260424T12Z_MSC_GDPS_WindU_IsbL-0450_LatLon0.15_PT018H.grib2 2026-04-24 15:58 898K
20260424T12Z_MSC_GDPS_WindU_IsbL-0500_LatLon0.15_PT018H.grib2 2026-04-24 15:58 1.1M
20260424T12Z_MSC_GDPS_WindU_IsbL-0550_LatLon0.15_PT018H.grib2 2026-04-24 15:58 1.1M
20260424T12Z_MSC_GDPS_WindU_IsbL-0600_LatLon0.15_PT018H.grib2 2026-04-24 15:58 1.1M
20260424T12Z_MSC_GDPS_WindU_IsbL-0650_LatLon0.15_PT018H.grib2 2026-04-24 15:58 1.2M
20260424T12Z_MSC_GDPS_WindU_IsbL-0700_LatLon0.15_PT018H.grib2 2026-04-24 15:58 1.2M
20260424T12Z_MSC_GDPS_WindU_IsbL-0750_LatLon0.15_PT018H.grib2 2026-04-24 15:58 1.3M
20260424T12Z_MSC_GDPS_WindU_IsbL-0800_LatLon0.15_PT018H.grib2 2026-04-24 15:58 1.4M
20260424T12Z_MSC_GDPS_WindU_IsbL-0850_LatLon0.15_PT018H.grib2 2026-04-24 15:58 1.4M
20260424T12Z_MSC_GDPS_WindU_IsbL-0875_LatLon0.15_PT018H.grib2 2026-04-24 15:58 1.4M
20260424T12Z_MSC_GDPS_WindU_IsbL-0900_LatLon0.15_PT018H.grib2 2026-04-24 15:58 1.5M
20260424T12Z_MSC_GDPS_WindU_IsbL-0925_LatLon0.15_PT018H.grib2 2026-04-24 15:58 1.5M
20260424T12Z_MSC_GDPS_WindU_IsbL-0950_LatLon0.15_PT018H.grib2 2026-04-24 15:58 1.4M
20260424T12Z_MSC_GDPS_WindU_IsbL-0970_LatLon0.15_PT018H.grib2 2026-04-24 15:58 1.4M
20260424T12Z_MSC_GDPS_WindU_IsbL-0985_LatLon0.15_PT018H.grib2 2026-04-24 15:58 1.4M
20260424T12Z_MSC_GDPS_WindU_IsbL-1000_LatLon0.15_PT018H.grib2 2026-04-24 15:58 1.4M
20260424T12Z_MSC_GDPS_WindU_IsbL-1015_LatLon0.15_PT018H.grib2 2026-04-24 15:58 1.3M
20260424T12Z_MSC_GDPS_WindV_AGL-10m_LatLon0.15_PT018H.grib2 2026-04-24 15:58 1.6M
20260424T12Z_MSC_GDPS_WindV_AGL-120m_LatLon0.15_PT018H.grib2 2026-04-24 15:58 966K
20260424T12Z_MSC_GDPS_WindV_AGL-40m_LatLon0.15_PT018H.grib2 2026-04-24 15:58 1.2M
20260424T12Z_MSC_GDPS_WindV_AGL-80m_LatLon0.15_PT018H.grib2 2026-04-24 15:58 1.2M
20260424T12Z_MSC_GDPS_WindV_IsbL-0001_LatLon0.15_PT018H.grib2 2026-04-24 15:58 555K
20260424T12Z_MSC_GDPS_WindV_IsbL-0005_LatLon0.15_PT018H.grib2 2026-04-24 15:58 787K
20260424T12Z_MSC_GDPS_WindV_IsbL-0010_LatLon0.15_PT018H.grib2 2026-04-24 15:58 889K
20260424T12Z_MSC_GDPS_WindV_IsbL-0020_LatLon0.15_PT018H.grib2 2026-04-24 15:58 937K
20260424T12Z_MSC_GDPS_WindV_IsbL-0030_LatLon0.15_PT018H.grib2 2026-04-24 15:58 851K
20260424T12Z_MSC_GDPS_WindV_IsbL-0050_LatLon0.15_PT018H.grib2 2026-04-24 15:58 910K
20260424T12Z_MSC_GDPS_WindV_IsbL-0100_LatLon0.15_PT018H.grib2 2026-04-24 15:58 1.0M
20260424T12Z_MSC_GDPS_WindV_IsbL-0150_LatLon0.15_PT018H.grib2 2026-04-24 15:58 1.0M
20260424T12Z_MSC_GDPS_WindV_IsbL-0175_LatLon0.15_PT018H.grib2 2026-04-24 15:58 1.0M
20260424T12Z_MSC_GDPS_WindV_IsbL-0200_LatLon0.15_PT018H.grib2 2026-04-24 15:58 1.0M
20260424T12Z_MSC_GDPS_WindV_IsbL-0225_LatLon0.15_PT018H.grib2 2026-04-24 15:58 851K
20260424T12Z_MSC_GDPS_WindV_IsbL-0250_LatLon0.15_PT018H.grib2 2026-04-24 15:58 852K
20260424T12Z_MSC_GDPS_WindV_IsbL-0275_LatLon0.15_PT018H.grib2 2026-04-24 15:58 879K
20260424T12Z_MSC_GDPS_WindV_IsbL-0300_LatLon0.15_PT018H.grib2 2026-04-24 15:58 927K
20260424T12Z_MSC_GDPS_WindV_IsbL-0350_LatLon0.15_PT018H.grib2 2026-04-24 15:58 883K
20260424T12Z_MSC_GDPS_WindV_IsbL-0400_LatLon0.15_PT018H.grib2 2026-04-24 15:58 885K
20260424T12Z_MSC_GDPS_WindV_IsbL-0450_LatLon0.15_PT018H.grib2 2026-04-24 15:58 1.1M
20260424T12Z_MSC_GDPS_WindV_IsbL-0500_LatLon0.15_PT018H.grib2 2026-04-24 15:58 1.1M
20260424T12Z_MSC_GDPS_WindV_IsbL-0550_LatLon0.15_PT018H.grib2 2026-04-24 15:58 1.1M
20260424T12Z_MSC_GDPS_WindV_IsbL-0600_LatLon0.15_PT018H.grib2 2026-04-24 15:58 1.1M
20260424T12Z_MSC_GDPS_WindV_IsbL-0650_LatLon0.15_PT018H.grib2 2026-04-24 15:58 1.1M
20260424T12Z_MSC_GDPS_WindV_IsbL-0700_LatLon0.15_PT018H.grib2 2026-04-24 15:58 1.2M
20260424T12Z_MSC_GDPS_WindV_IsbL-0750_LatLon0.15_PT018H.grib2 2026-04-24 15:58 1.2M
20260424T12Z_MSC_GDPS_WindV_IsbL-0800_LatLon0.15_PT018H.grib2 2026-04-24 15:58 1.3M
20260424T12Z_MSC_GDPS_WindV_IsbL-0850_LatLon0.15_PT018H.grib2 2026-04-24 15:58 1.4M
20260424T12Z_MSC_GDPS_WindV_IsbL-0875_LatLon0.15_PT018H.grib2 2026-04-24 15:58 1.4M
20260424T12Z_MSC_GDPS_WindV_IsbL-0900_LatLon0.15_PT018H.grib2 2026-04-24 15:58 1.4M
20260424T12Z_MSC_GDPS_WindV_IsbL-0925_LatLon0.15_PT018H.grib2 2026-04-24 15:58 1.4M
20260424T12Z_MSC_GDPS_WindV_IsbL-0950_LatLon0.15_PT018H.grib2 2026-04-24 15:58 1.4M
20260424T12Z_MSC_GDPS_WindV_IsbL-0970_LatLon0.15_PT018H.grib2 2026-04-24 15:58 1.4M
20260424T12Z_MSC_GDPS_WindV_IsbL-0985_LatLon0.15_PT018H.grib2 2026-04-24 15:58 1.7M
20260424T12Z_MSC_GDPS_WindV_IsbL-1000_LatLon0.15_PT018H.grib2 2026-04-24 15:58 1.7M
20260424T12Z_MSC_GDPS_WindV_IsbL-1015_LatLon0.15_PT018H.grib2 2026-04-24 15:58 1.6M